Hourly Data Report for October 30, 2013

All times are specified in Local Standard Time (LST). Add 1 hour to adjust for Daylight Saving Time where and when it is observed.

HALL BEACH A
NUNAVUT

68°46'33.000" N
81°14'33.000" W
9.10 m
2402354
71293
YUX

Download Data

Hourly Data (October 2013)
Hourly Data Report for October 30, 2013
Temp Definition
°C
Dew Point Temp Definition
°C
Rel Hum Definition
%
Wind Dir Definition
10's deg

Wind Spd Definition
km/h
Visibility Definition
km
Stn Press Definition
kPa
Hmdx Definition


Wind Chill Definition


Weather Definition


TIME
00:00 Legend Double Dagger -6.6 -7.6 93 6 15 4.8 100.52   -13 LegendNANA
01:00 Legend Double Dagger -7.3 -8.6 91 8 11 9.7 100.54   -12 LegendNANA
02:00 Legend Double Dagger -7.3 -9.0 88 2 11 16.1 100.58   -12 LegendNANA
03:00 Legend Double Dagger -9.0 -10.1 92 35 24 16.1 100.62   -17 LegendNANA
04:00 Legend Double Dagger -6.1 -8.4 84 6 13 16.1 100.63   -11 LegendNANA
05:00 Legend Double Dagger -6.7 -8.0 90 7 18 16.1 100.65   -13 LegendNANA
06:00 Legend Double Dagger -6.0 -7.2 91 5 21 16.1 100.69   -13 LegendNANA
07:00 Legend Double Dagger -6.1 -7.1 93 6 22 16.1 100.72   -13 LegendNANA
08:00 Legend Double Dagger -5.8 -6.9 92 9 17 16.1 100.73   -12 LegendNANA
09:00 Legend Double Dagger -6.8 -8.9 85 13 15 16.1 100.75   -13 LegendNANA
10:00 Legend Double Dagger -7.5 -9.7 85 14 17 16.1 100.77   -14 LegendNANA
11:00 Legend Double Dagger -7.9 -10.2 83 14 15 16.1 100.80   -14 LegendNANA
12:00 Legend Double Dagger -6.5 -8.8 84 13 13 16.1 100.83   -12 LegendNANA
13:00 Legend Double Dagger -5.9 -8.3 83 14 17 16.1 100.85   -12 LegendNANA
14:00 Legend Double Dagger -5.9 -8.3 83 13 13 16.1 100.87   -11 LegendNANA
15:00 Legend Double Dagger -6.1 -8.7 82 14 13 16.1 100.92   -11 LegendNANA
16:00 Legend Double Dagger -6.6 -7.7 92 11 21 16.1 100.97   -14 LegendNANA
17:00 Legend Double Dagger -7.5 -8.4 93 11 21 16.1 101.00   -15 LegendNANA
18:00 Legend Double Dagger -7.9 -8.6 95 10 15 16.1 101.03   -14 LegendNANA
19:00 Legend Double Dagger -8.3 -9.1 94 9 17 14.5 101.05   -15 LegendNANA
20:00 Legend Double Dagger -7.6 -8.4 94 9 18 16.1 101.06   -14 LegendNANA
21:00 Legend Double Dagger -8.0 -8.9 93 9 22 16.1 101.05   -16 LegendNANA
22:00 Legend Double Dagger -7.4 -9.2 87 7 17 16.1 101.04   -14 LegendNANA
23:00 Legend Double Dagger -7.1 -9.1 86 8 17 16.1 101.05   -14 LegendNANA

Notes on Data Quality.

Legend

  • E = Estimated
  • M = Missing
  • NA = Not Available
  • ‡ = Partner data that is not subject to review by the National Climate Archives
Date modified: